Regional Weather Roundup
Issued by NWS Wakefield, VA

Home | Current Version | Previous Version | Text Only | Print | Product List | Glossary Off
Versions: 1 2 3 4 5 6 7 8 9 10 11 12 13 14 15 16 17 18 19 20 21 22 23 24 25 26 27 28 29 30 31 32 33 34 35 36 37 38 39 40 41 42 43 44 45 46 47 48 49 50

000
ASUS41 KAKQ 251815
RWRAKQ

REGIONAL WEATHER ROUNDUP
NATIONAL WEATHER SERVICE WAKEFIELD VA
200 PM EDT TUE APR 25 2017

Note: "fair" indicates few or no clouds below 12,000 feet with no
significant weather and/or obstructions to visibility. * = Denotes
station may not report precipitation (e.g., rain,snow,etc.),
thunder or fog.

VAZ042-051-052>054-056-251900-
NORTHERN VIRGINIA

CITY           SKY/WX    TMP DP  RH WIND       PRES   REMARKS
WASH NATIONAL  LGT RAIN  59  58  96 NE20G26   29.78S FOG
DULLES         LGT RAIN  58  56  93 NE14      29.79F FOG
FORT BELVOIR   DRIZZLE   59  56  91 NE6       29.76F
QUANTICO       CLOUDY    60  59  96 NE20G26   29.76S FOG
FREDERICKSBRG* CLOUDY    60  60 100 NE12      29.72F
STAFFORD*      LGT RAIN  58  58 100 NE13G21   29.78F
WARRENTON      LGT RAIN  60  56  87 NE13G18   29.77S
CULPEPER*      DRIZZLE   60  59  98 N14       29.77F
MANASSAS*      LGT RAIN  59  57  93 NE9       29.78S FOG
LEESBURG*      RAIN      57  57 100 NE8       29.81F
WINCHESTER     RAIN      52  52 100 N9G16     29.82F
FRONT ROYAL*   CLOUDY    54  54 100 N8G17     29.80F
LURAY*         LGT RAIN  54  54 100 NE13      29.79F
$$

VAZ048-049-060>072-079>083-251900-
CENTRAL AND SOUTH CENTRAL VIRGINIA

CITY           SKY/WX    TMP DP  RH WIND       PRES   REMARKS
RICHMOND       CLOUDY    65  64  97 NE8       29.66F FOG
CHESTERFIELD*  CLOUDY    64  46  52 N9        29.68R
PETERSBURG*    PTSUNNY   69  64  82 NE12      29.65S
HANOVER        CLOUDY    62  61  96 NE8       29.69S FOG
TAPPAHANNOCK*  CLOUDY    63  63 100 NE9G16    29.69S
QUINTON*       CLOUDY    65  65 100 N6        29.66S
CHARLOTTSVILLE LGT RAIN  60  56  86 NE15G23   29.74R FOG
GORDONSVILLE*  CLOUDY    58  58  98 NE13G21   29.73S FOG
ORANGE*        LGT RAIN  59  55  88 NE12G22   29.74F
LOUISA*        DRIZZLE   63  61  94 NE13G20   29.70F
BUMPASS*       CLOUDY    58  58 100 NE7       29.71S
FARMVILLE*     CLOUDY    61  61 100 N10G20    29.66F FOG
CREWE*         CLOUDY    64  64 100 NE6       29.65R
FORT PICKETT*  CLOUDY    66  62  87 NE9G21    29.64S
CHASE CITY*    CLOUDY    62  60  94 N10G18    29.63S
CLARKSVILLE*   CLOUDY    61  61 100 N5        29.61S
SOUTH HILL*    CLOUDY    65  60  83 SE6       29.69S
LAWRENCEVILLE* MOCLDY    70  61  73 SE3       29.63S
EMPORIA*       MOSUNNY   72  59  64 SE7       29.64R
$$

VAZ088>098-251900-
SOUTHEAST VIRGINIA

CITY           SKY/WX    TMP DP  RH WIND       PRES   REMARKS
NORFOLK        SUNNY     76  63  64 E12       29.64S
VIRGINIA BEACH PTSUNNY   70  60  70 SE14      29.65S
NORFOLK NAVAL  NOT AVBL
WEST POINT*    CLOUDY    66  63  90 NE6       29.68R
SALUDA*        FAIR      64  62  94 E8        29.68S
NEWPORT NEWS   MOSUNNY   75  63  66 E9        29.64S
LANGLEY AFB    MOSUNNY   73  64  73 SE8       29.64S
FORT EUSTIS    PTSUNNY   78  63  59 S8        29.62S
WILLIAMSBURG*  MOSUNNY   75  70  83 CALM      29.66S
HR EXEC AP*    MOCLDY    77  63  61 SE7       29.62S
FRANKLIN*      CLOUDY    74  60  63 SE5       29.64S
US460-WAKEFLD  PTSUNNY   74  61  63 S5        29.64R
$$

VAZ020-022-025-037-045-251900-
WEST CENTRAL AND SOUTHWEST VIRGINIA

CITY           SKY/WX    TMP DP  RH WIND       PRES   REMARKS
STAUNTON*      DRIZZLE   53  52  97 NE15      29.80S
WAYNESBORO*    CLOUDY    52  52 100 N9G17     29.77F
HOT SPRINGS VA FOG       43  41  93 NE12G23   29.80S VSB<1/4
LYNCHBURG      LGT RAIN  58  56  93 NE13G22   29.72R FOG
DANVILLE       CLOUDY    59  59 100 N13       29.67S
SOUTH BOSTON*  CLOUDY    61  60  95 N13G21    29.64S
MARTINSVILLE   CLOUDY    61  56  83 N10G18    29.73S
ROANOKE        CLOUDY    59  56  89 N12       29.76R
BLACKSBURG     CLOUDY    61  54  79 NE10      29.79R
DUBLIN*        DRIZZLE   60  54  81 N5        29.77S
MARION*        CLOUDY    64  56  76 CALM      29.80S
HILLSVILLE*    CLOUDY    56  56  99 CALM      29.76R FOG
RICHLANDS*     CLOUDY    60  54  82 CALM      29.80S
WISE*          PTSUNNY   64  54  68 NW5       29.81S
ABINGDON*      CLOUDY    64  58  81 W5        29.78F
$$

MDZ021>025-VAZ099-100-251900-
SOUTHERN MARYLAND AND THE DELMARVA PENINSULA

CITY           SKY/WX    TMP DP  RH WIND       PRES   REMARKS
PATUXENT RIVER DRIZZLE   61  61 100 NE17      29.71F
BAY BRIDGE APT LGT RAIN  59  57  94 NE12      29.78F FOG
LEONARDTOWN    CLOUDY    59  59 100 NE6       29.73F
DOVER          HVY RAIN  59  59 100 NE16G26   29.78F VSB 3/4
GEORGETOWN     LGT RAIN  61  50  67 MISG      29.77F
EASTON         CLOUDY    63  57  82 E16G25    29.80S
CAMBRIDGE      PTSUNNY   63  61  94 E10       29.74F
SALISBURY      LGT RAIN  62  62 100 E9        29.73F
OCEAN CITY     RAIN      57  57 100 E10       29.74F FOG
WALLOPS ISLAND LGT RAIN  62  62 100 E7        29.71F
ACCOMACK*      CLOUDY    64  57  78 E8        29.69F
$$

NCZ012>017-030>032-251900-
NORTH CENTRAL AND EASTERN NORTH CAROLINA

CITY           SKY/WX    TMP DP  RH WIND       PRES   REMARKS
ROANOKE RAPIDS FAIR      73  59  60 S3        29.62S
RALEIGH        PTSUNNY   66  59  78 VRB7      29.64S
ELIZABETH CITY LGT RAIN  68  65  90 S7        29.65R
AHOSKIE*         N/A     71  59  66 CALM      29.62F
EDENTON*       CLOUDY    73  65  74 CALM      29.65R
CURRITUCK*     LGT RAIN  67  62  82 E5        29.66S
KILL DEVIL HLS RAIN      63  63 100 CALM      29.64F
MANTEO         DRIZZLE   65  64  97 E7        29.64F
CAPE HATTERAS  CLOUDY    66  62  87 VRB3      29.65R
TARBORO*       NOT AVBL
GOLDSBORO      MOSUNNY   73  61  66 CALM      29.60S
WASHINGTON     SUNNY     72  60  66 SE6       29.61F
GREENVILLE     MOSUNNY   73  61  64 CALM      29.64F
NEW BERN       SUNNY     75  57  53 E8        29.61F
WILMINGTON     MOSUNNY   71  59  65 W10       29.62S
$$

VAZ048-251900-
ELSEWHERE

CITY           SKY/WX    TMP DP  RH WIND       PRES   REMARKS
HARRISBURG PA  LGT RAIN  56  54  93 E12       29.90F FOG
BALTIMORE      LGT RAIN  57  57 100 NE16G23   29.80S FOG
ANNAPOLIS      LGT RAIN  59  57  93 NE6       29.79S FOG
ANDREWS AFB    DRIZZLE   57  57 100 NE16G23   29.75F FOG
PHILADELPHIA   LGT RAIN  57  54  89 NE17G28   29.90F FOG
HENDERSON NC   CLOUDY    61  57  87 W5        29.64R
GREENSBORO     LGT RAIN  60  59  96 N9        29.68S FOG
ROCKY MOUNT    MOSUNNY   73  60  63 W6        29.62F
$$

VAZ100-251900-
MARINE

STATION/POSITION TIME  TEMP    WIND        PRES    WAVE   SWELL
                       AIR SEA DIR/SP/G            HT/PER HT/PER
                 (UTC) (F)     (DEG/KT/KT) (MB)    (FT/S) (FT/S)
CAPE MAY NJ      1748   57 55   60/ 14/ 22 1007.9F
LEWES DE         1748   56 54  100/ 19/ 25 1007.5F
15NM E FENWICK I 1750   55 51   70/ 21/ 25 1007.2F   9/11   5/11
OCEAN-CITY-INLET 1742   56 54  100/ 10/ 15 1007.6F
WACHAPREAGUE VA  1748   61 60  100/  7/ 13 1005.0F
THOMAS POINT MD  1800   58 56   50/ 16/ 18   N/A
GOOSES REEF MD   1800   60 52  100/ 14/ 17 1007.9    2/ 3
COVE POINT MD    1748   60      90/ 15/ 18 1007.3F
SOLOMONS ISLAND  1742   61 60   50/ 13/ 19   N/A
BISHOPS HEAD MD  1748   63 59   80/ 13/ 15 1006.4F
PINEY POINT MD   1748           70/ 13/ 15   N/A
POTOMAC MD       1800   62 59   70/ 12/ 14 1004.9    2/ 3
CAMBRIDGE MD     1742   61 61                N/A
LEWISETTA VA     1748   62 60   90/ 12/ 15 1005.4S
RAPPAHANNOCK LGT 1748          100/ 14/ 16 1005.4F
STINGRAY PT      1800   62 61  110/ 10/ 14 1004.9    2/ 3
YORK RVR RNG VA  1748   63     140/ 16/ 18 1003.5S
YORKTOWN VA      1748   68 62  120/  7/  9 1003.7R
JAMESTOWN VA     1800   71 68   70/  6/ 12   N/A     1
DOMINION TERM VA 1748   70      40/  1/  3 1003.8R
KIPTOPEKE VA     1748      61  140/ 15/ 22   N/A
CHES BAY BRIDGE  1748   66 62  150/  9/ 14 1004.0S
CAPE HENRY VA    1748   64     130/ 12/ 17   N/A
WILLOUBY STN VA  1748   65     100/ 13/ 16 1004.8S
S CRANEY ISL VA  1748   73     140/  7/ 11 1003.5R
CAPE HENRY BUOY  1742      56                N/A     7/11   3/11
1ST LANDING BUOY 1800   63 61              1004.4    3/ 6
CAPE CHARLES BUO 1751      57                N/A     7/11   3/11
64NM E OF VA BCH 1750   59 55   70/ 10/ 12 1004.2F  12/11  11/11
DUCK PIER NC     1748   61 59  140/  8/  8 1003.9R
44100 DUCK FRF   1705      56                N/A     9/11   5/11
44056 DUCK FRF   1730      58                N/A     8/13   5/13
OREGON INLET NC  1742   64 63  280/  3/  5 1003.6F
HATTERAS NC      1748   64 67  350/  5/  6 1003.7R
DIAMOND SHLS NC  1750   68 78  330/  6/ 10 1003.5F   8/11   8/11
CAPE LOOKOUT NC  1800   67     120/  6/  7 1003.1R
$$



USA.gov is the U.S. government's official web portal to all federal, state and local government web resources and services.